Tracking 29892 objects as of 21-Nov-2024
HD Live streaming from Space Station
objects crossing your sky now

COSMOS 1275 DEB

Track COSMOS 1275 DEB now!
10-day predictions


NORAD ID: 12711
Int'l Code: 1981-053BF
Perigee: 944.9 km
Apogee: 1,036.8 km
Inclination: 83.0 °
Period: 104.8 minutes
Semi major axis: 7361 km
RCS: 0.056 m2 (small)
Launch date: June 4, 1981
Source: Commonwealth of Independent States (former USSR) (CIS)
Launch site: PLESETSK MISSILE AND SPACE COMPLEX (PKMTR)

Note: This is SATELLITE DEBRIS
Your satellite tracking list
Your tracking list is empty




NASA's NSSDC Master Catalog

Two Line Element Set (TLE):
1 12711U 81053BF  24325.30246017  .00000939  00000-0  96446-3 0  9991
2 12711  82.9623  82.9887 0062404 299.8331  87.1574 13.74433583164405
Source of the keplerian elements: AFSPC